EW5191 Weather Reports


Display with metric or nautical units.
time (UTC)temp
F
wind
direction
speed
MPH
gust
MPH
rain 1hr
in
rain 24hr
in
rain mn
in
humidity
%
barometer
mb
20260504041534 55 132 0.0 2.0 0.00 0.00 0.00 42 1005.6
20260504040032 56 131 0.0 0.0 0.00 0.00 0.00 41 1005.5
20260504034540 56 131 0.0 0.0 0.00 0.00 0.00 40 1005.4
20260504033031 60 131 1.0 4.0 0.00 0.00 0.00 37 1005.2
20260504031533 61 144 3.0 4.0 0.00 0.00 0.00 36 1005.1
20260504030038 62 123 3.0 4.0 0.00 0.00 0.00 34 1005.0
20260504024530 62 145 3.0 4.0 0.00 0.00 0.00 34 1004.9
20260504023030 65 144 2.0 3.0 0.00 0.00 0.00 32 1004.8
20260504021528 67 126 1.0 3.0 0.00 0.00 0.00 30 1004.7
20260504020030 68 130 0.0 2.0 0.00 0.00 0.00 28 1004.8
20260504014528 71 132 0.0 1.0 0.00 0.00 0.00 26 1004.9
20260504013027 71 99 0.0 5.0 0.00 0.00 0.00 27 1005.0
20260504011524 71 54 3.0 4.0 0.00 0.00 0.00 26 1005.1
20260504010024 73 86 0.0 1.0 0.00 0.00 0.00 25 1005.3
20260504004523 72 53 2.0 9.0 0.00 0.00 0.00 25 1005.4
20260504003018 72 78 2.0 7.0 0.00 0.00 0.00 25 1005.5
20260504001518 73 36 1.0 9.0 0.00 0.00 0.00 25 1005.7
20260504000016 72 128 1.0 5.0 0.00 0.00 0.00 26 1005.8
20260503234513 72 39 5.0 9.0 0.00 0.00 0.00 25 1006.0
20260503233011 72 326 4.0 11.0 0.00 0.00 0.00 26 1006.0
20260503231511 72 13 2.0 6.0 0.00 0.00 0.00 26 1006.2
20260503230007 70 316 3.0 13.0 0.00 0.00 0.00 27 1006.5
20260503224505 70 40 6.0 16.0 0.00 0.00 0.00 27 1006.5
20260503223004 72 38 7.0 13.0 0.00 0.00 0.00 26 1006.5
20260503221504 72 49 4.0 17.0 0.00 0.00 0.00 26 1006.6
20260503220001 73 31 9.0 13.0 0.00 0.00 0.00 26 1006.7
20260503214600 72 78 1.0 5.0 0.00 0.00 0.00 27 1007.0
20260503213132 71 331 3.0 9.0 0.00 0.00 0.00 27 1007.3
20260503211620 70 350 3.0 9.0 0.00 0.00 0.00 27 1007.5
20260503210055 71 4 8.0 16.0 0.00 0.00 0.00 26 1007.6
20260503204608 71 24 8.0 13.0 0.00 0.00 0.00 27 1007.7
20260503203054 70 240 1.0 6.0 0.00 0.00 0.00 27 1008.0
20260503201555 70 10 7.0 16.0 0.00 0.00 0.00 27 1008.2
20260503200054 70 350 4.0 10.0 0.00 0.00 0.00 27 1008.3
20260503194552 69 207 2.0 11.0 0.00 0.00 0.00 27 1008.6
20260503193050 70 348 1.0 12.0 0.00 0.00 0.00 28 1008.9
20260503191600 70 38 7.0 12.0 0.00 0.00 0.00 27 1009.1
20260503190044 70 85 0.0 11.0 0.00 0.00 0.00 28 1009.4
20260503184553 68 149 3.0 12.0 0.00 0.00 0.00 27 1009.7
20260503183044 69 8 1.0 10.0 0.00 0.00 0.00 29 1009.8
20260503181536 68 106 1.0 5.0 0.00 0.00 0.00 31 1010.2
20260503180035 66 292 1.0 10.0 0.00 0.00 0.00 33 1010.5
20260503174538 66 360 1.0 7.0 0.00 0.00 0.00 36 1010.8
20260503173026 64 23 3.0 7.0 0.00 0.00 0.00 37 1011.1
20260503171529 64 33 5.0 10.0 0.00 0.00 0.00 39 1011.3
20260503081536 50 128 0.0 1.0 0.00 0.00 0.00 48 1012.6
20260503071530 52 57 0.0 1.0 0.00 0.00 0.00 45 1012.8
20260503054514 55 239 2.0 3.0 0.00 0.00 0.00 35 1012.4
20260503053007 55 235 2.0 3.0 0.00 0.00 0.00 33 1012.3
20260503051505 56 230 2.0 3.0 0.00 0.00 0.00 31 1012.3
20260503050005 57 300 0.0 4.0 0.00 0.00 0.00 30 1012.3
20260503044504 58 207 2.0 9.0 0.00 0.00 0.00 28 1012.2
20260503043003 57 246 0.0 5.0 0.00 0.00 0.00 29 1012.0